Temperature
22 23 24 24 25 25 23 22 22 22 22 22 22 22 22 23 23 23 22 22 22 22 22 21 21 21 21 20 20 20 20 19 19 18 18 18 17 17 17 17 17 17 17 16
22 23 24 24 24 24 24 23 22 22 22 21 22 23 22 22 22 22 22 22 22 22 22 21 21 21 20 20 20 20 19 19 19 18 18 18 17 17 17 17 16 16 16 16
20 21 22 22 23 24 23 23 22 21 21 21 21 21 21 22 22 22 22 22 22 22 21 21 21 21 20 20 20 19 19 19 18 18 18 17 17 17 17 16 16 16 16 16
18 21 21 21 22 24 23 22 22 21 21 21 21 22 22 22 22 22 22 22 22 22 21 21 21 21 20 20 19 19 19 19 18 18 18 17 17 17 17 16 16 16 16 16
17 19 20 21 22 23 22 21 21 21 21 21 21 21 21 22 22 22 22 22 22 22 22 21 21 20 20 19 19 19 18 18 18 18 17 17 17 17 16 16 16 16 16 15
17 19 20 21 23 23 22 20 21 20 20 20 20 19 19 21 22 22 22 22 22 22 21 21 21 20 19 19 19 18 18 18 18 17 17 17 17 17 16 16 16 15 15 15
17 18 18 20 22 23 21 19 21 21 21 20 19 19 21 21 21 21 21 21 21 21 21 21 20 20 19 19 18 18 18 17 17 17 17 17 16 16 16 16 15 15 15 15
16 17 18 20 21 20 19 20 21 21 21 20 20 20 20 21 21 21 21 21 21 21 21 20 20 20 19 19 18 18 17 17 17 17 16 16 16 16 15 15 15 15 14 14
16 17 18 20 20 21 21 20 20 20 20 20 20 20 20 20 20 20 20 20 21 20 20 20 19 19 19 18 18 17 17 17 16 16 16 16 16 15 15 15 15 14 14 14
16 17 18 19 20 20 21 20 20 20 20 20 19 19 19 19 19 19 20 20 20 20 20 19 19 19 18 18 17 17 17 16 16 16 15 15 15 15 15 14 14 14 14 14
15 16 18 19 20 20 20 20 20 20 20 20 19 19 19 19 19 19 19 19 19 19 19 19 18 18 18 17 17 17 16 16 16 16 15 15 15 15 14 14 14 14 14 14
15 16 16 18 19 20 20 19 19 19 19 19 19 18 18 18 18 18 18 18 18 18 18 18 18 17 17 17 17 16 16 15 15 15 15 15 15 14 14 14 14 14 14 13
18 18 18 19 19 19 19 19 19 19 19 18 18 18 18 18 18 17 17 17 17 17 17 17 17 17 17 16 16 16 16 15 15 15 15 14 14 14 14 14 13 13 13 13
18 18 18 18 18 18 18 18 18 18 18 18 17 17 17 17 17 17 17 17 17 16 16 16 16 16 16 16 15 15 15 15 15 15 14 14 14 14 13 13 13 13 13 13
18 18 18 18 18 18 18 18 18 17 17 17 17 17 17 16 16 16 16 16 16 16 16 16 16 15 15 15 15 15 15 14 14 14 14 14 14 13 13 13 13 13 13 13
17 17 17 17 17 17 17 17 17 17 17 17 16 16 16 16 16 16 16 16 16 15 15 15 15 15 15 15 14 14 14 14 14 14 14 13 13 13 13 13 12 12 12 12
16 16 17 17 17 17 17 17 17 17 16 16 16 16 15 15 15 15 15 15 15 15 15 15 15 15 14 14 14 14 14 14 14 13 13 13 13 13 13 13 12 12 12 12
17 17 17 17 17 16 16 16 16 16 16 16 16 15 15 15 15 15 15 15 14 15 14 14 14 14 14 14 14 14 14 13 13 13 13 13 13 13 12 12 12 12 12 11
16 16 16 16 16 16 16 16 16 16 15 15 15 15 15 14 14 14 14 14 14 14 14 14 14 14 14 14 14 13 13 13 13 13 13 12 12 12 12 12 12 11 11 11
15 15 15 16 16 16 16 15 15 15 15 15 15 15 14 14 14 14 14 14 14 14 14 14 14 14 13 13 13 13 13 13 13 12 12 12 12 12 12 12 11 11 11 11
15 14 14 15 15 15 15 15 15 15 15 15 14 14 14 14 14 14 14 14 14 14 14 13 13 13 13 13 13 13 13 12 12 12 12 12 12 11 11 11 11 11 10 10
14 14 14 14 14 14 14 14 14 14 14 14 14 14 14 14 14 14 14 13 13 13 13 13 13 13 12 12 12 12 12 12 12 12 12 11 11 11 11 11 10 10 10 10
14 14 14 14 14 14 14 14 14 14 14 14 14 14 14 14 13 13 13 13 13 13 13 13 12 12 12 12 12 12 12 12 12 12 11 11 11 11 10 10 10 10 10 9
13 13 13 13 13 13 13 14 14 14 14 13 13 13 13 13 13 13 13 13 13 13 13 12 12 12 12 12 12 11 11 11 11 11 11 11 10 10 10 10 10 9 9 9
13 13 13 13 13 13 13 13 13 13 13 13 13 13 13 13 13 12 12 12 12 12 12 12 12 12 12 11 11 11 11 11 11 11 10 10 10 10 10 9 9 9 9 9
12 13 13 13 13 13 13 13 13 13 13 12 12 12 12 12 12 12 12 12 12 12 12 12 11 11 11 11 11 11 10 10 10 10 10 10 10 9 9 9 9 9 9 9
12 12 12 12 12 12 12 12 12 12 12 12 12 12 12 12 12 12 12 12 11 11 11 11 11 11 11 11 10 10 10 10 10 10 10 9 9 9 9 9 9 8 8 8
Wind_Speed
4 4 2 1 3 1 2 5 6 6 7 9 10 10 9 7 6 5 6 7 9 9 9 8 8 7 7 6 6 6 5 5 5 4 4 4 4 3 3 3 3 2 2 2
3 2 2 2 4 2 2 2 3 3 4 5 5 6 6 8 8 7 6 7 8 9 9 9 9 8 7 7 6 6 6 5 4 3 3 4 4 3 3 3 2 2 2 2
2 4 4 4 3 2 1 1 5 5 6 3 3 6 9 10 10 9 8 7 8 9 9 9 8 9 9 8 6 6 5 4 4 4 4 4 4 3 3 3 3 2 3 3
2 3 3 7 5 2 2 2 2 3 3 5 6 5 5 6 8 7 8 8 8 8 8 7 6 7 7 7 6 6 6 5 4 4 4 3 3 4 4 3 3 3 3 4
3 3 4 5 4 1 3 1 1 4 5 4 4 5 3 1 4 6 7 8 8 9 9 8 7 7 7 6 6 6 5 5 5 5 4 3 4 4 3 3 3 3 4 4
4 4 6 6 5 2 5 1 2 3 5 5 5 3 3 3 2 3 4 5 7 8 8 8 8 8 8 6 6 6 6 5 5 5 5 4 4 3 2 3 3 3 3 4
4 4 6 6 4 1 4 7 4 4 5 5 3 5 5 4 3 4 5 6 6 7 7 7 8 9 8 7 6 6 4 4 4 4 4 4 3 2 2 2 3 3 3 3
4 4 7 4 2 4 6 3 4 4 5 5 3 2 2 2 2 4 4 4 6 6 5 6 7 8 7 6 5 4 4 3 3 2 2 2 3 2 2 3 3 3 2 1
7 7 6 2 4 4 5 4 3 3 4 5 3 2 2 3 2 3 4 4 5 6 5 4 5 7 7 6 5 5 4 3 2 2 1 2 2 2 1 2 2 2 2 2
0 3 2 1 3 3 4 4 3 4 4 5 4 3 3 3 2 3 3 4 4 6 6 4 3 5 5 5 5 5 5 4 3 3 1 1 1 2 2 2 2 2 3 3
1 3 2 1 2 3 2 4 4 4 4 5 6 4 3 2 2 3 3 3 3 4 5 4 4 4 4 5 5 5 4 3 2 3 3 2 1 1 2 2 3 4 4 4
6 7 5 5 4 3 5 4 5 6 5 4 5 4 2 2 2 3 3 2 2 3 4 4 4 4 3 4 5 6 4 3 3 2 2 2 2 1 3 1 2 3 4 4
6 6 4 5 4 4 5 5 6 6 6 5 3 3 3 2 2 3 2 2 3 3 4 4 4 4 3 3 4 5 5 4 3 3 3 3 2 2 0 3 3 2 2 3
3 2 2 3 3 4 5 5 5 5 5 5 4 3 3 2 2 2 2 2 3 3 4 4 4 3 3 3 4 4 4 4 4 3 3 3 3 2 2 2 1 3 3 3
4 4 5 5 5 5 5 5 5 5 4 3 3 3 3 2 1 1 2 3 3 2 3 4 4 3 3 4 4 4 3 3 3 3 2 2 2 2 1 2 1 1 2 2
4 3 5 5 6 5 6 6 5 4 4 4 3 3 3 3 3 2 2 3 3 2 3 4 4 4 4 4 4 3 3 2 3 3 2 2 2 2 2 2 2 2 2 2
3 4 5 6 6 6 6 7 7 6 5 5 5 4 3 3 3 2 2 2 3 4 3 4 4 4 4 5 4 3 2 2 2 2 2 2 2 2 2 2 2 2 3 3
6 7 7 7 8 7 5 5 5 5 5 5 5 5 4 4 4 3 3 2 3 2 2 4 4 4 4 4 4 3 2 2 2 3 3 2 2 2 2 2 2 2 2 2
3 4 5 5 6 7 6 6 5 4 4 4 5 5 4 4 5 4 4 3 4 3 3 3 4 5 4 3 3 2 3 3 2 2 2 2 2 2 2 2 2 1 2 1
2 3 4 4 3 4 5 5 5 4 3 4 4 4 4 4 5 5 4 3 4 4 4 4 4 4 4 3 3 2 3 3 3 3 3 3 2 2 2 2 2 1 1 1
3 3 3 4 3 2 3 4 4 4 4 4 4 5 5 5 5 5 4 2 2 3 4 5 4 3 2 2 2 3 3 3 3 3 3 2 2 2 1 1 1 1 1 1
3 3 2 3 3 1 2 3 3 3 3 3 4 5 5 4 4 3 3 3 3 3 3 3 3 3 3 2 2 2 3 3 3 3 2 2 2 2 1 1 1 1 2 2
3 3 2 2 2 1 1 2 3 3 4 4 5 5 5 4 4 4 2 2 2 4 3 3 4 5 4 3 2 2 2 2 2 2 2 2 2 2 2 2 2 1 1 1
1 2 2 2 1 1 1 2 2 3 4 4 4 4 5 4 3 2 3 3 4 3 3 3 5 5 4 3 2 2 2 2 2 2 2 2 2 2 1 1 1 1 1 2
1 2 2 2 2 2 3 3 3 3 4 3 3 3 3 4 4 3 2 3 3 3 2 3 4 4 3 3 2 2 1 2 2 2 2 2 1 1 2 2 2 1 1 1
1 1 2 2 2 2 2 3 3 3 4 3 2 2 2 2 3 3 3 3 3 3 2 2 2 2 2 2 2 2 2 2 2 2 2 2 2 2 2 1 1 1 1 1
1 1 2 1 1 2 2 3 4 4 4 4 3 2 2 3 3 3 3 3 2 2 2 2 2 2 1 1 2 2 2 2 2 2 2 2 2 2 2 2 1 1 1 1
Wind_Direction
208 226 188 223 290 280 197 194 194 213 193 206 203 192 182 169 153 149 147 152 158 162 164 162 162 165 166 168 169 167 166 173 189 191 180 171 179 193 201 208 213 205 202 218
357 344 20 336 311 293 247 177 172 164 220 210 191 172 164 162 156 162 172 171 170 165 162 166 167 165 160 165 171 164 169 182 186 180 176 178 185 193 197 201 208 198 192 200
297 320 23 316 262 237 265 186 163 191 223 187 145 168 177 173 167 172 183 175 173 171 169 171 172 165 168 173 170 163 171 177 179 181 185 189 189 191 209 203 193 200 203 180
142 59 221 249 268 194 97 51 132 146 155 153 160 168 160 157 163 176 184 176 172 171 169 166 163 161 164 161 160 166 171 176 178 179 188 193 187 199 213 195 191 201 200 191
133 179 255 283 285 198 141 327 49 125 125 120 123 87 73 138 162 181 189 180 172 167 163 158 154 151 146 151 159 167 179 186 188 185 187 193 200 208 204 189 199 198 195 195
146 169 217 241 256 192 121 230 265 136 132 128 105 116 216 225 205 174 162 162 162 159 153 153 158 149 148 162 166 181 192 194 192 187 188 197 203 205 201 188 198 196 198 200
175 205 243 254 274 121 175 218 212 152 141 138 148 191 208 207 179 154 150 158 153 148 154 164 159 150 152 160 180 191 184 179 181 183 188 187 185 189 180 182 186 191 192 215
169 195 242 267 93 170 205 180 143 126 127 121 115 112 133 125 139 133 117 129 133 133 144 152 151 148 151 169 180 161 154 157 165 178 191 180 166 180 172 168 173 178 176 208
192 213 234 227 159 172 144 130 140 135 126 114 99 94 85 70 66 107 111 123 130 126 127 135 153 154 161 176 163 149 145 150 157 159 162 163 171 176 175 171 173 183 180 201
219 263 240 143 115 126 140 140 156 141 125 111 110 113 100 86 88 99 95 99 114 121 127 138 153 153 160 162 154 146 150 156 158 153 147 137 159 173 180 193 187 194 199 208
238 262 317 318 155 143 115 105 97 95 109 119 119 120 116 99 104 104 91 98 105 137 147 156 154 148 156 156 144 144 148 154 165 173 165 156 156 209 211 225 219 202 205 200
234 235 198 224 221 153 129 127 117 105 88 99 120 118 108 106 123 114 97 101 105 130 137 143 145 151 162 167 154 149 153 164 184 186 171 159 150 17 359 315 287 235 210 202
234 245 218 204 189 150 137 136 127 116 116 116 115 116 116 124 125 106 105 117 131 152 150 149 149 160 178 169 157 157 165 173 179 179 175 173 174 172 274 347 356 335 260 231
248 190 185 194 187 161 151 146 125 117 119 128 132 120 118 110 112 121 153 180 152 156 157 155 154 172 183 154 148 155 164 174 175 181 184 182 186 191 192 198 292 319 307 276
249 211 202 186 167 155 147 134 123 123 128 131 129 131 135 118 131 195 182 145 120 125 152 155 158 185 182 154 150 156 163 177 179 180 178 177 177 176 194 207 228 274 314 323
241 213 182 162 162 160 150 147 151 165 169 162 154 162 160 155 153 155 157 140 141 169 178 171 180 190 173 155 149 154 166 171 160 164 160 159 164 185 201 218 226 236 246 258
212 209 182 163 169 174 177 180 180 182 178 175 177 171 157 138 130 132 153 161 174 185 184 178 182 181 165 160 158 164 168 172 148 143 159 168 179 190 185 204 225 232 246 245
210 199 185 173 171 171 171 166 168 171 176 184 171 156 152 155 170 185 181 164 155 142 179 188 179 167 157 157 161 165 165 173 165 162 165 171 176 180 177 189 210 228 262 268
183 164 162 161 162 164 164 164 168 169 166 164 159 169 181 187 187 185 167 153 155 169 207 201 171 152 150 161 154 155 161 164 158 156 153 154 156 164 166 173 193 221 239 244
148 157 147 148 153 155 162 166 161 162 169 168 163 171 195 202 188 176 165 172 192 197 195 173 151 150 155 161 140 151 164 169 166 166 157 157 171 192 194 188 192 208 223 218
109 116 110 117 126 141 156 155 162 177 184 176 182 192 194 191 178 163 154 175 230 185 169 152 144 148 160 172 159 155 162 168 169 169 164 165 172 186 197 195 196 210 223 224
109 118 125 126 124 152 177 164 167 182 186 186 178 163 149 148 152 146 152 187 197 169 158 157 159 155 153 149 162 153 153 161 165 164 161 164 165 175 196 203 209 234 238 241
125 140 147 151 160 174 173 179 175 172 168 163 154 150 147 150 148 142 164 208 172 162 153 162 164 156 150 133 133 142 141 143 153 166 172 176 177 177 187 200 209 218 227 239
158 174 170 168 146 124 196 213 177 157 151 148 146 143 137 129 126 146 165 169 165 156 146 162 164 160 147 132 128 127 141 148 147 153 160 162 159 163 182 190 191 242 246 233
203 201 184 163 167 192 197 174 137 125 126 126 122 130 139 140 144 156 156 152 143 132 135 152 164 166 153 143 141 145 168 180 166 154 151 153 161 163 166 169 160 195 252 265
213 201 186 176 172 170 149 133 126 129 130 127 129 142 139 131 139 143 134 133 135 140 144 145 139 139 135 135 142 158 174 174 161 151 150 152 166 168 159 161 171 195 234 262
78 77 91 80 77 112 120 130 135 143 149 146 149 155 140 129 127 127 122 121 125 133 139 142 136 133 136 140 157 169 169 171 167 157 155 159 163 159 161 167 179 198 237 275
Height
1480 1475 1474 1476 1476 1476 1483 1488 1496 1492 1489 1484 1480 1478 1478 1479 1481 1483 1486 1488 1490 1493 1495 1498 1500 1502 1504 1506 1507 1508 1509 1510 1510 1511 1512 1512 1512 1513 1514 1514 1514 1515 1515 1515
1480 1474 1474 1476 1474 1473 1475 1477 1482 1483 1484 1476 1475 1476 1478 1479 1481 1483 1485 1487 1489 1491 1493 1495 1497 1499 1502 1503 1505 1506 1507 1507 1508 1509 1509 1509 1509 1510 1511 1511 1511 1512 1512 1512
1491 1480 1478 1485 1475 1473 1473 1473 1477 1483 1479 1474 1474 1474 1475 1477 1479 1480 1483 1485 1488 1489 1490 1492 1495 1496 1498 1500 1502 1503 1504 1505 1506 1506 1506 1506 1507 1507 1507 1508 1508 1508 1508 1508
1494 1489 1499 1484 1467 1466 1469 1471 1470 1470 1471 1471 1471 1472 1474 1476 1477 1479 1481 1482 1485 1487 1488 1490 1493 1495 1496 1498 1499 1500 1501 1502 1503 1503 1504 1504 1504 1504 1505 1505 1505 1505 1505 1505
1497 1498 1490 1477 1467 1466 1471 1475 1470 1470 1470 1471 1471 1472 1474 1475 1476 1477 1479 1480 1482 1484 1486 1488 1490 1492 1494 1496 1497 1498 1498 1499 1500 1500 1501 1501 1501 1502 1502 1501 1501 1501 1501 1501
1492 1495 1495 1478 1463 1461 1466 1478 1469 1468 1469 1470 1470 1477 1476 1474 1475 1475 1477 1479 1480 1482 1484 1485 1487 1490 1492 1492 1494 1495 1495 1496 1497 1497 1498 1498 1498 1498 1498 1498 1498 1498 1498 1498
1489 1491 1483 1467 1460 1461 1478 1477 1467 1466 1467 1469 1470 1472 1472 1472 1473 1473 1475 1477 1479 1480 1482 1483 1485 1487 1488 1489 1491 1492 1493 1493 1494 1494 1495 1495 1495 1496 1495 1495 1495 1494 1494 1495
1486 1490 1484 1461 1460 1466 1467 1463 1465 1465 1466 1467 1468 1470 1470 1470 1470 1471 1473 1476 1478 1479 1480 1482 1483 1484 1485 1486 1488 1490 1491 1491 1491 1492 1492 1492 1492 1492 1492 1492 1492 1491 1492 1492
1474 1474 1462 1458 1459 1460 1461 1463 1464 1465 1466 1467 1468 1469 1470 1470 1470 1471 1473 1474 1475 1476 1478 1480 1481 1482 1483 1484 1486 1487 1488 1489 1489 1490 1490 1490 1490 1490 1490 1489 1489 1488 1489 1489
1467 1462 1459 1458 1457 1459 1460 1461 1462 1463 1464 1466 1467 1468 1469 1469 1470 1470 1471 1472 1473 1474 1476 1478 1479 1480 1481 1482 1483 1484 1485 1486 1487 1487 1487 1488 1487 1487 1487 1487 1486 1485 1485 1486
1465 1461 1459 1457 1456 1457 1459 1460 1461 1463 1463 1464 1465 1466 1467 1468 1468 1469 1470 1470 1472 1473 1474 1475 1477 1478 1479 1480 1481 1482 1483 1483 1485 1485 1484 1485 1485 1485 1485 1484 1484 1483 1483 1483
1463 1457 1457 1456 1456 1456 1457 1459 1460 1461 1462 1463 1464 1464 1465 1466 1468 1468 1469 1470 1471 1472 1472 1473 1474 1476 1477 1478 1478 1479 1480 1481 1482 1483 1482 1482 1482 1482 1482 1482 1482 1481 1481 1481
1453 1453 1453 1452 1454 1455 1456 1457 1458 1459 1460 1462 1463 1464 1464 1465 1466 1467 1468 1469 1470 1471 1471 1472 1472 1473 1474 1475 1476 1477 1478 1478 1479 1480 1480 1480 1480 1479 1479 1479 1479 1479 1478 1478
1450 1450 1450 1450 1451 1453 1455 1456 1457 1459 1460 1461 1462 1463 1463 1463 1464 1466 1467 1467 1468 1469 1469 1470 1470 1471 1472 1473 1473 1474 1476 1476 1477 1477 1478 1478 1478 1478 1477 1477 1476 1475 1475 1475
1447 1447 1448 1448 1450 1452 1453 1455 1456 1457 1458 1460 1461 1461 1462 1462 1462 1464 1465 1466 1466 1467 1467 1468 1469 1469 1471 1471 1471 1472 1473 1474 1474 1475 1476 1476 1476 1476 1476 1475 1474 1474 1473 1473
1444 1444 1445 1446 1447 1449 1451 1453 1454 1455 1457 1458 1458 1459 1460 1460 1460 1461 1462 1463 1464 1465 1465 1466 1466 1467 1468 1469 1470 1471 1472 1472 1473 1473 1474 1474 1474 1474 1473 1473 1472 1472 1471 1470
1440 1440 1441 1442 1444 1446 1448 1450 1451 1453 1454 1455 1456 1457 1458 1458 1458 1459 1460 1461 1462 1463 1463 1464 1465 1466 1466 1467 1468 1469 1470 1470 1471 1472 1472 1472 1472 1472 1471 1471 1471 1470 1469 1469
1436 1436 1437 1438 1440 1442 1444 1446 1448 1450 1451 1453 1454 1455 1455 1455 1455 1456 1457 1458 1460 1460 1461 1462 1463 1464 1464 1466 1467 1468 1468 1468 1469 1470 1470 1470 1470 1469 1469 1468 1468 1468 1467 1466
1431 1432 1434 1436 1438 1439 1441 1443 1445 1447 1449 1450 1451 1451 1452 1453 1453 1454 1455 1456 1457 1457 1459 1460 1461 1462 1463 1464 1465 1466 1466 1466 1467 1468 1468 1468 1468 1467 1467 1466 1465 1465 1464 1464
1428 1430 1431 1433 1435 1437 1438 1440 1441 1443 1445 1447 1448 1448 1449 1449 1450 1452 1453 1454 1455 1456 1457 1458 1459 1460 1461 1462 1463 1463 1464 1464 1465 1465 1465 1465 1465 1465 1464 1463 1463 1462 1462 1461
1426 1428 1429 1431 1433 1434 1435 1437 1439 1440 1442 1444 1444 1445 1445 1446 1447 1449 1450 1452 1453 1455 1456 1457 1457 1458 1458 1460 1460 1461 1461 1462 1462 1463 1462 1462 1462 1462 1461 1460 1460 1459 1459 1458
1426 1427 1428 1430 1431 1432 1433 1435 1436 1437 1438 1440 1440 1441 1442 1443 1445 1447 1449 1450 1451 1452 1453 1454 1455 1455 1457 1457 1458 1458 1459 1459 1459 1460 1460 1460 1460 1459 1459 1458 1457 1457 1456 1455
1425 1426 1427 1428 1429 1430 1432 1433 1434 1435 1436 1437 1437 1438 1440 1441 1443 1444 1446 1448 1449 1450 1451 1452 1453 1454 1455 1456 1456 1457 1457 1457 1457 1457 1457 1457 1457 1457 1456 1455 1455 1454 1453 1452
1425 1425 1426 1427 1428 1429 1430 1431 1432 1433 1434 1435 1436 1437 1439 1440 1442 1443 1444 1446 1446 1448 1449 1449 1451 1451 1453 1454 1454 1455 1455 1456 1455 1455 1455 1455 1454 1454 1453 1453 1452 1451 1450 1449
1424 1425 1425 1425 1426 1427 1428 1429 1430 1432 1433 1434 1435 1437 1438 1439 1440 1442 1443 1443 1445 1445 1447 1448 1449 1450 1451 1451 1451 1452 1453 1453 1452 1452 1452 1452 1451 1451 1450 1449 1448 1448 1447 1446
1423 1423 1424 1425 1425 1426 1426 1427 1428 1430 1432 1433 1435 1437 1438 1439 1440 1441 1441 1442 1443 1444 1445 1445 1446 1447 1447 1448 1449 1450 1450 1450 1450 1450 1449 1449 1448 1448 1447 1446 1445 1444 1443 1442
1423 1423 1424 1424 1425 1426 1426 1427 1428 1429 1431 1432 1434 1436 1437 1438 1439 1439 1440 1441 1442 1443 1443 1444 1444 1445 1445 1446 1446 1447 1447 1447 1447 1447 1447 1446 1445 1444 1443 1442 1442 1441 1439 1438